Weather History for Kabul, Afghanistan

Change the Weather History Date:

Tuesday, January 28, 2014

  Actual Average Record
Temperature  
Mean Temperature 42 °F -  
Max Temperature 57 °F 42 °F - ()
Min Temperature 28 °F 22 °F - ()
Degree Days  
Heating Degree Days 22    
Moisture  
Dew Point 24 °F    
Average Humidity 56    
Maximum Humidity 87    
Minimum Humidity 21    
Precipitation  
Precipitation 0.00 in 0.08 in - ()
Sea Level Pressure  
Sea Level Pressure 30.23 in    
Wind  
Wind Speed 4 mph ()    
Max Wind Speed 7 mph    
Max Gust Speed -    
Visibility 2.5 miles    
Events      
T = Trace of Precipitation, MM = Missing Value Source: Averaged Metar Reports

Daily Weather History Graph

Daily Weather History Graph

Search for Another Location

Airport:

Trip Planner

Search our weather history database for the weather conditions in past years. The results will help you decide how hot, cold, wet, or windy it might be!

Date:

Astronomy

Jan. 28, 2014 Rise Set
Actual Time 6:54 AM AFT 5:18 PM AFT
Civil Twilight 6:27 AM AFT 5:45 PM AFT
Nautical Twilight 5:57 AM AFT 6:15 PM AFT
Astronomical Twilight 5:27 AM AFT 6:45 PM AFT
Moon 4:07 AM AFT (1/28) 2:41 PM AFT (1/28)
Length of Visible Light 11h 17m
Length of Day
10h 24m
Waning Crescent, 10% of the Moon is Illuminated
Jan 28
Waning Crescent
Jan 31
New
Feb 6
First Quarter
Feb 15
Full
Feb 22
Last Quarter

Hourly Weather History & Observations

Time (AFT) Temp. Windchill Dew Point Humidity Pressure Visibility Wind Dir Wind Speed Gust Speed Precip Events Conditions
12:20 AM 33.8 °F 27.7 °F 26.6 °F 75% 30.30 in 1.6 mi East 6.9 mph - N/A   Smoke
1:20 AM 32.0 °F 25.6 °F 26.6 °F 80% 30.30 in 1.9 mi SSE 6.9 mph - N/A   Smoke
2:20 AM 32.0 °F 27.5 °F 28.4 °F 87% 30.27 in 1.9 mi Variable 4.6 mph - N/A   Smoke
3:20 AM 32.0 °F 28.7 °F 26.6 °F 80% 30.27 in 1.2 mi Variable 3.5 mph - N/A   Smoke
4:20 AM 32.0 °F - 26.6 °F 80% 30.27 in 1.9 mi Variable 2.3 mph - N/A   Smoke
4:47 AM 28.4 °F 21.2 °F 24.8 °F 86% 30.27 in 2.5 mi NW 6.9 mph - N/A   Mist
5:20 AM 32.0 °F 28.7 °F 24.8 °F 75% 30.27 in 3.1 mi WNW 3.5 mph - N/A   Haze
6:20 AM 32.0 °F 25.6 °F 23.0 °F 69% 30.27 in 3.7 mi NNW 6.9 mph - N/A   Unknown
7:20 AM 33.8 °F 27.7 °F 23.0 °F 65% 30.30 in 4.3 mi NNW 6.9 mph - N/A   Unknown
8:20 AM 35.6 °F 31.7 °F 24.8 °F 65% 30.30 in 3.7 mi NW 4.6 mph - N/A   Unknown
9:20 AM 42.8 °F 38.6 °F 23.0 °F 46% 30.30 in 3.1 mi NNW 6.9 mph - N/A   Haze
10:20 AM 46.4 °F 44.3 °F 23.0 °F 40% 30.30 in 4.3 mi South 4.6 mph - N/A   Unknown
11:20 AM 50.0 °F - 24.8 °F 37% 30.27 in 3.1 mi East 3.5 mph - N/A   Haze
12:20 PM 55.4 °F - 23.0 °F 29% 30.24 in 3.7 mi Variable 1.2 mph - N/A   Unknown
1:20 PM 55.4 °F - 23.0 °F 29% 30.21 in 3.1 mi WNW 3.5 mph - N/A   Haze
2:20 PM 57.2 °F - 19.4 °F 23% 30.18 in 3.1 mi Variable 1.2 mph - N/A   Haze
3:20 PM 57.2 °F - 17.6 °F 21% 30.18 in 3.7 mi Variable 2.3 mph - N/A   Unknown
4:20 PM 57.2 °F - 17.6 °F 21% 30.15 in 4.3 mi West 3.5 mph - N/A   Unknown
5:20 PM 51.8 °F - 19.4 °F 28% 30.15 in 4.3 mi East 3.5 mph - N/A   Unknown
6:20 PM 44.6 °F 40.7 °F 19.4 °F 37% 30.15 in 4.3 mi East 6.9 mph - N/A   Unknown
7:20 PM 42.8 °F - 21.2 °F 42% 30.15 in 3.1 mi Variable 2.3 mph - N/A   Haze
7:55 PM 39.2 °F 37.0 °F 23.0 °F 52% 30.18 in 2.5 mi NNW 3.5 mph - N/A   Haze
8:20 PM 39.2 °F 37.0 °F 24.8 °F 56% 30.18 in 1.1 mi WNW 3.5 mph - N/A   Smoke
8:58 PM 39.2 °F - 24.8 °F 56% 30.18 in 0.8 mi Variable 2.3 mph - N/A   Smoke
9:20 PM 37.4 °F - 24.8 °F 60% 30.18 in 0.5 mi NW 1.2 mph - N/A   Smoke
9:55 PM 35.6 °F 32.8 °F 24.8 °F 65% 30.18 in 0.8 mi ESE 3.5 mph - N/A   Smoke
10:20 PM 33.8 °F - 24.8 °F 70% 30.18 in 0.8 mi Variable 2.3 mph - N/A   Smoke
11:20 PM 33.8 °F 28.6 °F 24.8 °F 70% 30.18 in 0.8 mi Variable 5.8 mph - N/A   Smoke
11:43 PM 33.8 °F 27.7 °F 26.6 °F 75% 30.18 in 0.5 mi SSE 6.9 mph - N/A   Smoke